STARLINK-34560

Last updated on Sat Jul 19 2025 00:02:08 GMT+0000 (Coordinated Universal Time)

1 64700U 25142E 25199.58335648 -.01241819 00000+0 -21482-1 0 9994 2 64700 69.9999 194.6617 0004147 277.1027 161.6315 15.53410702 4113
UTC large
Height (km)
Speed (km/s)
/
Latitude / Longitude
Inclination (degrees)
Orbital Period (minutes)
Azimuth
Elevation
Range (km)
Doppler Factor

Next 0 passes for location: London (51.5072 / 0.1276)

Sorry there are no passes over London.